Andover, NJ

7:55 PM EDT on April 27, 2017 (GMT -0400)
Andover

Weather History for K12N - October, 2014

Change the Weather History Date:

Thursday, October 2, 2014

  Actual Average (KFWN) Record (KFWN)
Temperature  
Mean Temperature 62 °F -  
Max Temperature 68 °F 65 °F 84 °F (1954)
Min Temperature 57 °F 42 °F 30 °F (1992)
Degree Days  
Heating Degree Days 2    
Growing Degree Days 12 (Base 50)    
Moisture  
Dew Point 56 °F    
Average Humidity 85    
Maximum Humidity 97    
Minimum Humidity 63    
Precipitation  
Precipitation 0.02 in - - ()
Sea Level Pressure  
Sea Level Pressure 30.13 in    
Wind  
Wind Speed 3 mph (NNE)    
Max Wind Speed 6 mph    
Max Gust Speed -    
Averages and records for this station are not official NWS values.
T = Trace of Precipitation, MM = Missing Value Source: NWS Daily Summary

Daily Weather History Graph

Daily Weather History Graph

Search for Another Location

Airport or City:

Trip Planner

Search our weather history database for the weather conditions in past years. The results will help you decide how hot, cold, wet, or windy it might be!

Date:

Astronomy

Oct. 02, 2014 Rise Set
Actual Time 6:56 AM EDT 6:39 PM EDT
Civil Twilight 6:29 AM EDT 7:06 PM EDT
Nautical Twilight 5:57 AM EDT 7:38 PM EDT
Astronomical Twilight 5:25 AM EDT 8:10 PM EDT
Moon 2:46 PM EDT (10/2) 12:08 AM EDT (10/2)
Length of Visible Light 12h 37m
Length of Day
11h 42m
First Quarter, 60% of the Moon is Illuminated
Oct 2
First Quarter
Oct 8
Full
Oct 15
Last Quarter
Oct 23
New
Oct 30
First Quarter

Hourly Weather History & Observations

Time (EDT) Temp. Dew Point Humidity Pressure Visibility Wind Dir Wind Speed Gust Speed Precip Events Conditions
12:54 AM 59.0 °F 57.0 °F 93% 30.09 in - North 4.6 mph - N/A   Unknown
1:54 AM 57.9 °F 57.0 °F 97% 30.11 in - NE 4.6 mph - N/A   Unknown
2:54 AM 57.9 °F 57.0 °F 97% 30.10 in - NE 3.5 mph - 0.01 in   Unknown
3:54 AM 57.9 °F 57.0 °F 97% 30.10 in - NE 5.8 mph - 0.01 in   Unknown
4:54 AM 57.9 °F 55.9 °F 93% 30.11 in - Calm Calm - N/A   Unknown
5:54 AM 57.0 °F 55.9 °F 96% 30.12 in - Calm Calm - N/A   Unknown
6:54 AM 57.9 °F 55.9 °F 93% 30.13 in - Calm Calm - N/A   Unknown
7:54 AM 57.9 °F 55.9 °F 93% 30.14 in - Variable 4.6 mph - N/A   Unknown
8:54 AM 57.9 °F 55.9 °F 93% 30.16 in - Variable 3.5 mph - N/A   Unknown
9:54 AM 60.1 °F 55.9 °F 86% 30.17 in - Variable 4.6 mph - N/A   Unknown
10:54 AM 61.0 °F 55.9 °F 83% 30.16 in - Variable 3.5 mph - N/A   Unknown
11:54 AM 63.0 °F 55.9 °F 78% 30.15 in - Variable 4.6 mph - N/A   Unknown
12:54 PM 64.9 °F 55.9 °F 73% 30.14 in - Variable 4.6 mph - N/A   Unknown
1:54 PM 68.0 °F 55.0 °F 63% 30.12 in - North 3.5 mph - N/A   Unknown
2:54 PM 66.0 °F 55.0 °F 68% 30.11 in - Variable 3.5 mph - N/A   Unknown
3:54 PM 66.0 °F 55.0 °F 68% 30.11 in - Calm Calm - N/A   Unknown
4:54 PM 66.0 °F 54.0 °F 65% 30.11 in - Calm Calm - N/A   Unknown
5:54 PM 64.9 °F 55.0 °F 70% 30.12 in - Calm Calm - N/A   Unknown
6:54 PM 62.1 °F 55.9 °F 80% 30.12 in - Calm Calm - N/A   Unknown
7:54 PM 62.1 °F 57.0 °F 84% 30.14 in - Calm Calm - N/A   Unknown
8:54 PM 61.0 °F 57.0 °F 87% 30.14 in - Calm Calm - N/A   Unknown
9:54 PM 60.1 °F 57.0 °F 90% 30.13 in - Calm Calm - N/A   Unknown
10:54 PM 59.0 °F 57.0 °F 93% 30.13 in - Calm Calm - N/A   Unknown
11:54 PM 57.9 °F 55.9 °F 93% 30.13 in - Calm Calm - N/A   Unknown